Aurora, CO

7:40 PM MST on January 21, 2017 (GMT -0700)
Aurora

Weather History for KBKF - October, 2012

Change the Weather History Date:

Tuesday, October 16, 2012

  Actual Average Record
Temperature  
Mean Temperature 60 °F -  
Max Temperature 77 °F 63 °F 85 °F (2016)
Min Temperature 44 °F 36 °F 27 °F (2013)
Degree Days  
Heating Degree Days 4    
Growing Degree Days 10 (Base 50)    
Moisture  
Dew Point 30 °F    
Average Humidity 34    
Maximum Humidity 57    
Minimum Humidity 13    
Precipitation  
Precipitation 0.00 in - - ()
Sea Level Pressure  
Sea Level Pressure 29.62 in    
Wind  
Wind Speed 11 mph (WSW)    
Max Wind Speed 43 mph    
Max Gust Speed 62 mph    
Visibility 10 miles    
Events      
Averages and records for this station are not official NWS values.
T = Trace of Precipitation, MM = Missing Value Source: NWS Daily Summary

Daily Weather History Graph

Daily Weather History Graph

Search for Another Location

Airport or City:

Trip Planner

Search our weather history database for the weather conditions in past years. The results will help you decide how hot, cold, wet, or windy it might be!

Date:

Astronomy

Oct. 16, 2012 Rise Set
Actual Time 7:10 AM MDT 6:17 PM MDT
Civil Twilight 6:43 AM MDT 6:44 PM MDT
Nautical Twilight 6:12 AM MDT 7:15 PM MDT
Astronomical Twilight 5:41 AM MDT 7:47 PM MDT
Moon 8:36 AM MDT (10/16) 7:04 PM MDT (10/16)
Length of Visible Light 12h 01m
Length of Day
11h 06m
New Moon, 2% of the Moon is Illuminated
Oct 16
New Moon
Oct 21
First Quarter
Oct 29
Full
Nov 6
Last Quarter
Nov 13
New

Hourly Weather History & Observations

Time (MDT) Temp. Windchill Dew Point Humidity Pressure Visibility Wind Dir Wind Speed Gust Speed Precip Events Conditions
12:55 AM 59.0 °F - 24.8 °F 27% 29.75 in 10.0 mi WNW 10.4 mph - N/A   Mostly Cloudy
1:55 AM 50.0 °F - 26.6 °F 40% 29.78 in 10.0 mi SW 8.1 mph - N/A   Scattered Clouds
2:55 AM 51.8 °F - 26.6 °F 38% 29.78 in 10.0 mi WSW 6.9 mph - N/A   Partly Cloudy
3:55 AM 48.2 °F - 26.6 °F 43% 29.77 in 10.0 mi East 6.9 mph - N/A   Partly Cloudy
4:55 AM 44.6 °F 39.7 °F 30.2 °F 57% 29.77 in 10.0 mi South 9.2 mph - N/A   Partly Cloudy
5:55 AM 44.6 °F 39.7 °F 28.4 °F 53% 29.79 in 10.0 mi South 9.2 mph - N/A   Partly Cloudy
6:55 AM 44.6 °F 40.7 °F 28.4 °F 53% 29.78 in 25.0 mi ESE 6.9 mph - N/A   Partly Cloudy
7:55 AM 44.6 °F 39.7 °F 30.2 °F 57% 29.78 in 70.0 mi South 9.2 mph - N/A   Partly Cloudy
8:55 AM 55.4 °F - 32.0 °F 41% 29.75 in 70.0 mi South 11.5 mph - N/A   Partly Cloudy
9:55 AM 62.6 °F - 30.2 °F 30% 29.71 in 70.0 mi SSW 13.8 mph - N/A   Partly Cloudy
10:55 AM 68.0 °F - 28.4 °F 23% 29.66 in 70.0 mi SSW 9.2 mph - N/A   Mostly Cloudy
11:55 AM 66.2 °F - 26.6 °F 23% 29.60 in 70.0 mi South 11.5 mph - N/A   Mostly Cloudy
12:55 PM 71.6 °F - 28.4 °F 20% 29.55 in 70.0 mi South 9.2 mph - N/A   Mostly Cloudy
1:55 PM 71.6 °F - 26.6 °F 19% 29.51 in 70.0 mi SSW 6.9 mph - N/A   Mostly Cloudy
2:55 PM 77.0 °F - 23.0 °F 13% 29.44 in 70.0 mi West 12.7 mph 23.0 mph N/A   Scattered Clouds
3:55 PM 77.0 °F - 26.6 °F 16% 29.44 in 70.0 mi NW 15.0 mph - N/A   Partly Cloudy
4:55 PM 73.4 °F - 32.0 °F 22% 29.46 in 70.0 mi North 13.8 mph - N/A   Partly Cloudy
5:55 PM 68.0 °F - 32.0 °F 26% 29.46 in 70.0 mi WNW 4.6 mph - N/A   Scattered Clouds
6:55 PM 68.0 °F - 32.0 °F 26% 29.45 in 25.0 mi WSW 11.5 mph 20.7 mph N/A   Scattered Clouds
7:55 PM 68.0 °F - 30.2 °F 24% 29.45 in 25.0 mi West 20.7 mph 27.6 mph N/A   Scattered Clouds
8:55 PM 66.2 °F - 32.0 °F 28% 29.43 in 25.0 mi NW 12.7 mph - N/A   Mostly Cloudy
9:55 PM 57.2 °F - 39.2 °F 51% 29.52 in 10.0 mi NNW 17.3 mph 25.3 mph N/A   Mostly Cloudy
10:59 PM 57.2 °F - 37.4 °F 48% 29.55 in 10.0 mi North 27.6 mph 33.4 mph N/A   Mostly Cloudy
11:55 PM 51.8 °F - 32.0 °F 47% 29.60 in 10.0 mi WNW 42.6 mph 62.1 mph N/A   Mostly Cloudy